Starlink 3786

operational
NORAD ID: 52263 Int'l Des: 2022-041 Owner: SPXS Country: US Constellation: starlink
LEOCIRCULAR

关于 Starlink 3786

正在加载描述...

实时位置

正在加载3D地球...

即将过境

高度历史

Altitude vs Time

uPlot chart will show altitude changes over time

两行轨道根数

1 52263U 22041C 25296.46617899 .00000058 00000-0 21737-4 0 9998
2 52263 53.2183 5.1392 0001401 93.9203 266.1949 15.08845096193640
Epoch: Oct 23, 2025 • Age: 33 hours

当前状态

高度 557.1 km
速度 7.58 km/s
星下点 -48.15°S, 99.55°W
发射日期 Apr 21, 2022
运行时间 3.5 years
类型 internet

技术详情

分类 Payload
质量 297.00 kg
干质量 275.00 kg
总质量 297.00 kg
长度 0.20 m
直径 2.80 m
跨度 9.00 m
形状 Box + pan
制造商 SPXS
平台类型 Starlink
阶段状态 In Orbit
所有者/国家 SPXS/US

大型星座

Loading constellations...